Location: Ash Observatory
(39.7321°N, 75.2004°W)
Time: 22:06:10
(UTC-04:00)

Envisat - Pass Details

Date: 01 April 2019
Orbit: 764 x 766 km, 98.1° (Epoch: 17 October)

Event Time Altitude Azimuth Distance (km) Brightness Sun altitude
Rises 20:05:29 0° 182° (S) 3,214 6.1 -8.5°
Reaches altitude 10° 20:07:52 10° 189° (S) 2,293 5.4 -9.0°
Maximum altitude 20:12:42 45° 261° (W) 1,035 4.2 -9.9°
Drops below altitude 10° 20:17:34 10° 334° (NNW) 2,309 6.1 -10.8°
Sets 20:19:59 0° 341° (NNW) 3,240 6.8 -11.2°
